Find Starlink 34788

NORAD ID: 65056 Int'l Des: 2025-165 Owner: SPXS Country: US Constellation: starlink operational
LEOCIRCULARRETROGRADESSO

实时位置

正在加载3D地球...

关于 Starlink 34788

正在加载描述...

即将过境

Passes for default location (London). Set your location on the main map for personalized predictions.

高度历史

Loading altitude history...

两行轨道根数

1 65056U 25165A 26104.93200364 .00002285 00000-0 16248-3 0 9992
2 65056 97.6026 182.9501 0001148 184.2571 175.8646 15.05653709 40240
Epoch: Apr 14, 2026 • Age: 10 hours

当前状态

高度 554.6 km
速度 7.58 km/s
星下点 -7.56°S, 137.71°W
发射日期 Jul 31, 2025
运行时间 0.7 years
类型 internet

技术详情

分类 Payload
质量 575.00 kg
干质量 530.00 kg
总质量 575.00 kg
长度 0.30 m
直径 4.10 m
跨度 29.00 m
形状 Box + pan
制造商 SPXS
平台类型 Starlink V2MO
阶段状态 In Orbit
所有者/国家 SPXS/US

Most Searched